Regional Weather Roundup
Issued by NWS

Home | Current Version | Previous Version | Graphics & Text | Print | Product List | Glossary On
Versions: 1 2 3 4 5 6 7 8 9 10 11 12 13 14 15 16 17 18 19 20 21 22 23 24 25 26 27 28 29 30 31 32 33 34 35 36 37 38 39 40 41 42 43 44 45 46 47 48 49 50
156
ASUS45 KPSR 270210
RWRAZ

ARIZONA HOURLY REGIONAL WEATHER ROUNDUP
NATIONAL WEATHER SERVICE PHOENIX AZ
700 PM MST SUN MAR 26 2017

NOTE: FAIR INDICATES FEW OR NO CLOUDS BELOW 12,000 FEET WITH NO
SIGNIFICANT WEATHER AND/OR OBSTRUCTIONS TO VISIBILITY.

AZZ001>003-036-270300-
NORTHWEST ARIZONA

CITY           SKY/WX    TMP DP  RH WIND       PRES   REMARKS
BULLHEAD CITY  CLEAR     79  30  17 S10       29.85S
KINGMAN        CLEAR     62  17  17 SW10      29.97R
$$

AZZ004>008-015-016-018-270300-
NORTH CENTRAL ARIZONA

CITY           SKY/WX    TMP DP  RH WIND       PRES   REMARKS
GRAND CANYON   PTCLDY    41  30  65 CALM      30.06R
WILLIAMS       CLEAR     48  25  40 SW5       30.06S
PRESCOTT       CLEAR     57  28  33 SW9       30.01R
FLAGSTAFF      PTCLDY    45  25  45 S7        30.06R
PAYSON         PTCLDY    57  27  30 SW7       30.05S
PAGE           MOCLDY    61  36  39 NW5       29.95R
$$

AZZ009>014-017-270300-
NORTHEAST ARIZONA

CITY           SKY/WX    TMP DP  RH WIND       PRES   REMARKS
WINSLOW        MOCLDY    62  22  21 NE6       29.98S
SAINT JOHNS    MOCLDY    56   8  14 N7        30.00R
WINDOW ROCK    CLOUDY    48  28  46 S6        30.04R
SHOW LOW       CLEAR     48  23  37 S10       30.06S
$$

AZZ023-270300-
GREATER PHOENIX AREA

CITY           SKY/WX    TMP DP  RH WIND       PRES   REMARKS
PHOENIX        MOCLDY    78  27  15 NW8       29.87S
BUCKEYE        CLEAR     73  32  21 CALM      29.88S
GLENDALE       PTCLDY    75  32  20 SE3       29.89S
LUKE AFB       CLEAR     77  32  18 SW6       29.87S
DEER VALLEY    CLEAR     74  30  19 SW6       29.88F
SCOTTSDALE     CLEAR     75  30  19 CALM      29.91S
MESA-FALCON    PTCLDY   N/A N/A N/A W6        29.87S
MESA-GATEWAY   CLEAR     75  30  19 N7        29.90S
CHANDLER       CLEAR     77  28  16 W7        29.89S
$$

AZZ027-028-270300-
SOUTHWEST MARICOPA COUNTY AND PINAL COUNTY

CITY           SKY/WX    TMP DP  RH WIND       PRES   REMARKS
CASA GRANDE    NOT AVBL
GILA BEND      FAIR      78  26  15 NW6       29.87S
$$

AZZ503-504-507>509-270300-
SOUTHEAST ARIZONA

CITY           SKY/WX    TMP DP  RH WIND       PRES   REMARKS
TUCSON         CLEAR     73  25  16 N8        29.95R
DAVIS-MONTHAN  CLEAR     71  25  17 N10       29.94R
RYAN FIELD     CLEAR     73  25  16 NW7       29.94R
NOGALES        CLEAR     68  27  21 SW7       29.98S
SIERRA VISTA   CLEAR     63  22  21 SW9       30.02R
DOUGLAS        CLEAR     66  21  18 W8        29.97S
SAFFORD        CLEAR     68  20  16 NW14      29.92R
$$

AZZ020-021-025-026-031-270300-
SOUTHWEST ARIZONA

CITY           SKY/WX    TMP DP  RH WIND       PRES   REMARKS
YUMA           CLEAR     79  35  20 SW7       29.86F
$$

CAZ031-033-041-043-047-048-061-270300-
SOUTHERN CALIFORNIA

CITY           SKY/WX    TMP DP  RH WIND       PRES   REMARKS
DOWNTOWN L.A.  PTCLDY    62  52  69 VRB5      30.01F
L.A. AIRPORT   PTCLDY    59  53  80 W10       30.02F
SAN DIEGO      PTCLDY    63  50  62 NW5       30.04F
BURBANK        MOCLDY    61  48  62 S9        30.00S
ONTARIO        MOCLDY    61  51  70 W12       30.00S
RIVERSIDE      MOCLDY    63  52  67 W10       30.00S
PALM SPRINGS   CLEAR     75  45  34 NW15      29.89S
EL CENTRO NAS  LGT RAIN  77  41  27 SW21      29.88R
IMPERIAL       CLEAR     75  44  33 W13       29.85S
BLYTHE         CLEAR     78  36  21 E5        29.86R
NEEDLES        CLEAR     80  32  17 SW8       29.86S
$$

NVZ020-UTZ003-270300-
SOUTHERN NEVADA-UTAH

CITY           SKY/WX    TMP DP  RH WIND       PRES   REMARKS
LAS VEGAS      MOCLDY    72  29  20 E9        29.86S
SALT LAKE CITY CLOUDY    52  30  43 S7        29.97S
$$

NMZ009-TXZ055-270300-
NEW MEXICO-WEST TEXAS

CITY           SKY/WX    TMP DP  RH WIND       PRES   REMARKS
ALBUQUERQUE    PTCLDY    60  22  23 N12       29.97R
EL PASO        PTCLDY    70  15  12 W10       29.92R
$$


........................KEY........................
SKY/WX - SKY CONDITION/WEATHER
TMP    - TEMPERATURE IN FAHRENHEIT
DP     - DEW POINT IN FAHRENHEIT
RH     - RELATIVE HUMIDITY IN PERCENT
WIND   - DIRECTION AND SPEED IN MILES PER HOUR (MPH)
VRB    - VARIABLE WIND DIRECTION
PRES   - MEAN SEA LEVEL PRESSURE IN INCHES OF MERCURY
         F - FALLING PRESSURE   R - RISING PRESSURE
         S - STEADY PRESSURE
VSB    - VISIBILITY IN MILES
HX     - HEAT INDEX IN FAHRENHEIT
WCI    - WIND CHILL INDEX IN FAHRENHEIT
TC     - TEMPERATURE IN CELSIUS WHICH IS ALSO KNOWN AS
         TEMPERATURE IN CENTIGRADE
AFB    - AIR FORCE BASE
         LUKE AFB IS LUKE AIR FORCE BASE
         DAVIS-MONTHAN IS DAVIS-MONTHAN AIR FORCE BASE
NAS    - NAVAL AIR STATION
         EL CENTRO NAS IS EL CENTRO NAVAL AIR STATION
N/A    - NOT AVAILABLE





USA.gov is the U.S. government's official web portal to all federal, state and local government web resources and services.